Caribou Point, Nova Scotia

10:03 PM ADT on May 25, 2018 (GMT -0300)
Caribou Point

Weather History for CWBK - October, 2013

Change the Weather History Date:

Wednesday, October 16, 2013

  Actual Average (WUND) Record (WUND)
Temperature  
Mean Temperature 48 °F -  
Max Temperature 58 °F - - (-1)
Min Temperature 39 °F - - (-1)
Degree Days  
Heating Degree Days 16    
Moisture  
Dew Point 45 °F    
Average Humidity 82    
Maximum Humidity 94    
Minimum Humidity 61    
Precipitation  
Precipitation 1.06 in - - ()
Sea Level Pressure  
Sea Level Pressure 30.22 in    
Wind  
Wind Speed 8 mph ()    
Max Wind Speed 18 mph    
Max Gust Speed -    
Averages and records for this station are not official NWS values.
T = Trace of Precipitation, MM = Missing Value Source: Averaged Metar Reports

Daily Weather History Graph

Daily Weather History Graph

Search for Another Location

Airport or City:

Astronomy

Oct. 16, 2013 Rise Set
Actual Time 7:28 AM ADT 6:22 PM ADT
Civil Twilight 6:58 AM ADT 6:52 PM ADT
Nautical Twilight 6:24 AM ADT 7:27 PM ADT
Astronomical Twilight 5:49 AM ADT 8:01 PM ADT
Moon 5:05 PM ADT (10/16) 4:45 AM ADT (10/16)
Length of Visible Light 11h 53m
Length of Day
10h 53m
Waxing Gibbous, 94% of the Moon is Illuminated
Oct 16
Waxing Gibbous
Oct 18
Full
Oct 26
Last Quarter
Nov 3
New
Nov 10
First Quarter

Hourly Weather History & Observations

Time (ADT) Temp. Windchill Dew Point Humidity Pressure Visibility Wind Dir Wind Speed Gust Speed Precip Events Conditions
12:00 AM 51.1 °F - 37.9 °F 61% 30.29 in - NNE 6.9 mph - N/A   Unknown
1:00 AM 50.9 °F - 39.4 °F 65% 30.28 in - NE 6.9 mph - N/A   Unknown
2:00 AM 50.5 °F - 39.9 °F 67% 30.29 in - ENE 6.9 mph - N/A   Unknown
3:00 AM 42 °F - 40 °F 88% 30.28 in - SW 8.1 mph - -  
3:00 AM 42.3 °F 37.3 °F 39.6 °F 90% 30.28 in - SW 8.1 mph - N/A   Unknown
4:00 AM 41.5 °F 37.1 °F 39.2 °F 91% 30.28 in - SW 6.9 mph - N/A   Unknown
5:00 AM 40.6 °F 36.0 °F 38.3 °F 91% 30.27 in - SW 6.9 mph - N/A   Unknown
6:00 AM 41.2 °F 37.3 °F 39.6 °F 94% 30.28 in - SSW 5.8 mph - N/A   Unknown
7:00 AM 40.6 °F 38.6 °F 39.0 °F 94% 30.28 in - SW 3.5 mph - N/A   Unknown
8:00 AM 43.7 °F 39.7 °F 42.1 °F 94% 30.29 in - South 6.9 mph - N/A   Unknown
9:00 AM 46 °F - 43 °F 85% 30.29 in - South 6.9 mph - -  
9:00 AM 46.0 °F 42.5 °F 43.0 °F 89% 30.29 in - South 6.9 mph - N/A   Unknown
10:00 AM 47.7 °F - 39.9 °F 75% 30.29 in - SSE 6.9 mph - N/A   Unknown
11:00 AM 50.9 °F - 42.4 °F 73% 30.29 in - SE 3.5 mph - N/A   Unknown
12:00 PM 54.5 °F - 46.0 °F 73% 30.27 in - ESE 9.2 mph - N/A   Unknown
1:00 PM 54.5 °F - 46.2 °F 74% 30.23 in - ESE 8.1 mph - N/A   Unknown
2:00 PM 56.1 °F - 47.8 °F 74% 30.21 in - East 8.1 mph - N/A   Unknown
3:00 PM 56 °F - 50 °F 73% 30.18 in - East 11.5 mph - -  
3:00 PM 56.5 °F - 49.8 °F 78% 30.18 in - East 11.5 mph - N/A   Unknown
4:00 PM 56.8 °F - 50.5 °F 79% 30.17 in - East 11.5 mph - N/A   Unknown
5:00 PM 58.1 °F - 50.5 °F 76% 30.16 in - South 9.2 mph - N/A   Unknown
6:00 PM 57.6 °F - 49.6 °F 75% 30.15 in - South 15.0 mph - N/A   Unknown
7:00 PM 55.2 °F - 50.0 °F 83% 30.14 in - SSE 17.3 mph - N/A   Unknown
8:00 PM 53.6 °F - 51.1 °F 91% 30.12 in - SSE 16.1 mph - 0.03 in   Unknown
9:00 PM 53 °F - 51 °F 91% 30.12 in - South 15.0 mph - -  
9:00 PM 53.4 °F - 51.1 °F 92% 30.12 in - South 15.0 mph - 0.06 in   Unknown
10:00 PM 54.1 °F - 52.3 °F 94% 30.09 in - South 17.3 mph - 0.07 in   Unknown
11:00 PM 54.3 °F - 52.2 °F 92% 30.06 in - SSE 18.4 mph - 0.08 in   Unknown